Time,TemperatureF,DewpointF,PressureIn,WindDirection,WindDirectionDegrees,WindSpeedMPH,WindSpeedGustMPH,Humidity,HourlyPrecipIn,Conditions,Clouds,dailyrainin,SoftwareType,DateUTC
2013-05-18 00:00:00,57.3,41.3,30.18,ESE,108,0.0,2.0,55,0.00,,---,0.00,VWS V14.01,2013-05-18 04:00:00,
2013-05-18 00:01:00,57.3,41.8,30.18,ESE,109,0.0,2.0,56,0.00,,---,0.00,VWS V14.01,2013-05-18 04:01:00,
2013-05-18 00:06:00,56.9,41.4,30.18,SE,138,1.0,2.0,56,0.00,,---,0.00,VWS V14.01,2013-05-18 04:06:00,
2013-05-18 00:11:00,56.6,41.6,30.19,East,101,1.0,2.0,57,0.00,,---,0.00,VWS V14.01,2013-05-18 04:11:00,
2013-05-18 00:16:00,56.3,41.7,30.19,ESE,114,0.0,4.0,58,0.00,,---,0.00,VWS V14.01,2013-05-18 04:16:00,
2013-05-18 00:21:00,56.0,41.9,30.19,ESE,114,0.0,4.0,59,0.00,,---,0.00,VWS V14.01,2013-05-18 04:21:00,
2013-05-18 00:26:00,55.6,42.0,30.19,South,191,1.0,4.0,60,0.00,,---,0.00,VWS V14.01,2013-05-18 04:26:00,
2013-05-18 00:31:00,55.1,41.9,30.19,South,188,1.0,4.0,61,0.00,,---,0.00,VWS V14.01,2013-05-18 04:31:00,
2013-05-18 00:36:00,54.7,42.0,30.19,SSE,159,2.0,2.0,62,0.00,,---,0.00,VWS V14.01,2013-05-18 04:36:00,
2013-05-18 00:41:00,54.7,42.4,30.19,SE,141,0.0,2.0,63,0.00,,---,0.00,VWS V14.01,2013-05-18 04:41:00,
2013-05-18 00:46:00,54.9,42.1,30.19,ESE,117,0.0,2.0,62,0.00,,---,0.00,VWS V14.01,2013-05-18 04:46:00,
2013-05-18 00:51:00,55.0,42.2,30.19,East,85,2.0,3.0,62,0.00,,---,0.00,VWS V14.01,2013-05-18 04:51:00,
2013-05-18 00:56:00,55.1,42.3,30.19,East,87,2.0,4.0,62,0.00,,---,0.00,VWS V14.01,2013-05-18 04:56:00,
2013-05-18 01:01:00,55.3,42.1,30.19,ESE,111,2.0,4.0,61,0.00,,---,0.00,VWS V14.01,2013-05-18 05:01:00,
2013-05-18 01:07:00,55.5,41.9,30.18,East,93,1.0,3.0,60,0.00,,---,0.00,VWS V14.01,2013-05-18 05:07:00,
2013-05-18 01:12:00,55.3,42.5,30.18,East,89,0.0,4.0,62,0.00,,---,0.00,VWS V14.01,2013-05-18 05:12:00,
2013-05-18 01:17:00,54.9,42.1,30.18,SSE,148,0.0,4.0,62,0.00,,---,0.00,VWS V14.01,2013-05-18 05:17:00,
2013-05-18 01:22:00,54.6,42.3,30.18,East,89,1.0,4.0,63,0.00,,---,0.00,VWS V14.01,2013-05-18 05:22:00,
2013-05-18 01:27:00,54.3,42.4,30.18,East,89,0.0,4.0,64,0.00,,---,0.00,VWS V14.01,2013-05-18 05:27:00,
2013-05-18 01:32:00,54.0,42.5,30.18,ENE,68,0.0,4.0,65,0.00,,---,0.00,VWS V14.01,2013-05-18 05:32:00,
2013-05-18 01:37:00,53.7,42.6,30.18,ENE,68,0.0,0.0,66,0.00,,---,0.00,VWS V14.01,2013-05-18 05:37:00,
2013-05-18 01:42:00,53.3,42.6,30.19,ESE,120,0.0,1.0,67,0.00,,---,0.00,VWS V14.01,2013-05-18 05:42:00,
2013-05-18 01:47:00,52.9,42.6,30.19,ESE,120,0.0,1.0,68,0.00,,---,0.00,VWS V14.01,2013-05-18 05:47:00,
2013-05-18 01:52:00,52.9,42.6,30.18,ESE,117,0.0,1.0,68,0.00,,---,0.00,VWS V14.01,2013-05-18 05:52:00,
2013-05-18 01:57:00,53.0,42.7,30.18,SE,127,0.0,1.0,68,0.00,,---,0.00,VWS V14.01,2013-05-18 05:57:00,
2013-05-18 02:02:00,52.8,42.9,30.19,SE,141,0.0,1.0,69,0.00,,---,0.00,VWS V14.01,2013-05-18 06:02:00,
2013-05-18 02:07:00,52.8,42.5,30.19,SE,141,0.0,0.0,68,0.00,,---,0.00,VWS V14.01,2013-05-18 06:07:00,
2013-05-18 02:12:00,52.8,42.5,30.19,SE,141,0.0,0.0,68,0.00,,---,0.00,VWS V14.01,2013-05-18 06:12:00,
2013-05-18 02:17:00,52.7,42.5,30.19,SE,141,0.0,0.0,68,0.00,,---,0.00,VWS V14.01,2013-05-18 06:17:00,
2013-05-18 02:22:00,52.9,42.6,30.19,ENE,74,0.0,0.0,68,0.00,,---,0.00,VWS V14.01,2013-05-18 06:22:00,
2013-05-18 02:27:00,53.0,42.7,30.19,ENE,63,0.0,0.0,68,0.00,,---,0.00,VWS V14.01,2013-05-18 06:27:00,
2013-05-18 02:32:00,53.2,42.9,30.19,ENE,75,0.0,0.0,68,0.00,,---,0.00,VWS V14.01,2013-05-18 06:32:00,
2013-05-18 02:37:00,53.0,43.1,30.18,ENE,69,0.0,0.0,69,0.00,,---,0.00,VWS V14.01,2013-05-18 06:37:00,
2013-05-18 02:42:00,53.0,43.5,30.19,ENE,70,0.0,0.0,70,0.00,,---,0.00,VWS V14.01,2013-05-18 06:42:00,
2013-05-18 02:47:00,53.0,43.5,30.19,ENE,74,0.0,0.0,70,0.00,,---,0.00,VWS V14.01,2013-05-18 06:47:00,
2013-05-18 02:52:00,53.0,43.9,30.19,SE,129,0.0,0.0,71,0.00,,---,0.00,VWS V14.01,2013-05-18 06:52:00,
2013-05-18 02:57:00,52.8,44.0,30.19,SSE,159,0.0,2.0,72,0.00,,---,0.00,VWS V14.01,2013-05-18 06:57:00,
2013-05-18 03:02:00,52.4,44.0,30.19,SSE,155,0.0,2.0,73,0.00,,---,0.00,VWS V14.01,2013-05-18 07:02:00,
2013-05-18 03:07:00,52.2,43.8,30.19,ENE,75,1.0,2.0,73,0.00,,---,0.00,VWS V14.01,2013-05-18 07:07:00,
2013-05-18 03:12:00,52.2,43.8,30.19,ENE,73,0.0,2.0,73,0.00,,---,0.00,VWS V14.01,2013-05-18 07:12:00,
2013-05-18 03:17:00,52.1,43.7,30.19,SE,129,0.0,2.0,73,0.00,,---,0.00,VWS V14.01,2013-05-18 07:17:00,
2013-05-18 03:22:00,52.2,44.2,30.19,South,191,1.0,2.0,74,0.00,,---,0.00,VWS V14.01,2013-05-18 07:22:00,
2013-05-18 03:27:00,52.0,44.0,30.19,SSE,156,0.0,2.0,74,0.00,,---,0.00,VWS V14.01,2013-05-18 07:27:00,
2013-05-18 03:32:00,52.0,44.0,30.20,SSE,157,0.0,2.0,74,0.00,,---,0.00,VWS V14.01,2013-05-18 07:32:00,
2013-05-18 03:37:00,52.1,44.4,30.20,SSE,155,0.0,0.0,75,0.00,,---,0.00,VWS V14.01,2013-05-18 07:37:00,
2013-05-18 03:42:00,52.2,44.5,30.20,SSE,155,0.0,0.0,75,0.00,,---,0.00,VWS V14.01,2013-05-18 07:42:00,
2013-05-18 03:47:00,52.3,44.3,30.20,SSE,148,0.0,0.0,74,0.00,,---,0.00,VWS V14.01,2013-05-18 07:47:00,
2013-05-18 03:52:00,52.6,44.6,30.20,SSE,148,0.0,0.0,74,0.00,,---,0.00,VWS V14.01,2013-05-18 07:52:00,
2013-05-18 03:57:00,52.6,44.2,30.21,SSE,148,0.0,0.0,73,0.00,,---,0.00,VWS V14.01,2013-05-18 07:57:00,
2013-05-18 04:02:00,52.7,44.3,30.21,SE,142,0.0,2.0,73,0.00,,---,0.00,VWS V14.01,2013-05-18 08:02:00,
2013-05-18 04:07:00,52.8,44.4,30.21,East,101,1.0,1.0,73,0.00,,---,0.00,VWS V14.01,2013-05-18 08:07:00,
2013-05-18 04:12:00,53.1,44.0,30.21,SE,127,0.0,2.0,71,0.00,,---,0.00,VWS V14.01,2013-05-18 08:12:00,
2013-05-18 04:17:00,53.4,43.9,30.21,East,82,1.0,2.0,70,0.00,,---,0.00,VWS V14.01,2013-05-18 08:17:00,
2013-05-18 04:22:00,53.7,44.2,30.21,ESE,110,1.0,3.0,70,0.00,,---,0.00,VWS V14.01,2013-05-18 08:22:00,
2013-05-18 04:27:00,53.8,44.3,30.21,East,92,2.0,3.0,70,0.00,,---,0.00,VWS V14.01,2013-05-18 08:27:00,
2013-05-18 04:32:00,53.9,44.3,30.22,East,96,0.0,3.0,70,0.00,,---,0.00,VWS V14.01,2013-05-18 08:32:00,
2013-05-18 04:37:00,53.9,44.3,30.22,ESE,104,1.0,2.0,70,0.00,,---,0.00,VWS V14.01,2013-05-18 08:37:00,
2013-05-18 04:42:00,54.0,44.5,30.22,SE,136,0.0,2.0,70,0.00,,---,0.00,VWS V14.01,2013-05-18 08:42:00,
2013-05-18 04:47:00,53.9,44.7,30.22,SE,136,0.0,2.0,71,0.00,,---,0.00,VWS V14.01,2013-05-18 08:47:00,
2013-05-18 04:52:00,53.8,45.0,30.22,SE,135,0.0,2.0,72,0.00,,---,0.00,VWS V14.01,2013-05-18 08:52:00,
2013-05-18 04:57:00,53.8,45.4,30.22,SE,135,0.0,2.0,73,0.00,,---,0.00,VWS V14.01,2013-05-18 08:57:00,
2013-05-18 05:02:00,53.7,45.6,30.22,SSE,156,0.0,2.0,74,0.00,,---,0.00,VWS V14.01,2013-05-18 09:02:00,
2013-05-18 05:07:00,53.6,45.5,30.22,SSE,160,0.0,1.0,74,0.00,,---,0.00,VWS V14.01,2013-05-18 09:07:00,
2013-05-18 05:12:00,53.4,45.3,30.22,SSE,160,0.0,1.0,74,0.00,,---,0.00,VWS V14.01,2013-05-18 09:12:00,
2013-05-18 05:17:00,53.4,45.3,30.22,SSE,160,0.0,1.0,74,0.00,,---,0.00,VWS V14.01,2013-05-18 09:17:00,
2013-05-18 05:22:00,53.4,45.0,30.22,SSE,160,0.0,1.0,73,0.00,,---,0.00,VWS V14.01,2013-05-18 09:22:00,
2013-05-18 05:27:00,53.4,45.3,30.22,SSE,161,0.0,1.0,74,0.00,,---,0.00,VWS V14.01,2013-05-18 09:27:00,
2013-05-18 05:32:00,53.3,45.2,30.23,SSE,160,0.0,1.0,74,0.00,,---,0.00,VWS V14.01,2013-05-18 09:32:00,
2013-05-18 05:37:00,53.2,45.1,30.23,SSE,160,0.0,0.0,74,0.00,,---,0.00,VWS V14.01,2013-05-18 09:37:00,
2013-05-18 05:42:00,53.1,45.4,30.23,SSE,160,0.0,0.0,75,0.00,,---,0.00,VWS V14.01,2013-05-18 09:42:00,
2013-05-18 05:47:00,53.0,45.3,30.23,SSE,160,0.0,0.0,75,0.00,,---,0.00,VWS V14.01,2013-05-18 09:47:00,
2013-05-18 05:52:00,53.0,45.3,30.23,SSE,160,0.0,0.0,75,0.00,,---,0.00,VWS V14.01,2013-05-18 09:52:00,
2013-05-18 05:57:00,53.0,45.7,30.23,SSE,160,0.0,0.0,76,0.00,,---,0.00,VWS V14.01,2013-05-18 09:57:00,
2013-05-18 06:02:00,53.0,46.3,30.23,SSE,160,0.0,0.0,78,0.00,,---,0.00,VWS V14.01,2013-05-18 10:02:00,
2013-05-18 06:07:00,52.9,45.5,30.23,SSE,160,0.0,0.0,76,0.00,,---,0.00,VWS V14.01,2013-05-18 10:07:00,
2013-05-18 06:12:00,53.0,46.0,30.24,SSE,160,0.0,0.0,77,0.00,,---,0.00,VWS V14.01,2013-05-18 10:12:00,
2013-05-18 06:17:00,53.0,46.0,30.24,SSE,160,0.0,0.0,77,0.00,,---,0.00,VWS V14.01,2013-05-18 10:17:00,
2013-05-18 06:22:00,53.3,46.3,30.24,SSE,160,0.0,0.0,77,0.00,,---,0.00,VWS V14.01,2013-05-18 10:22:00,
2013-05-18 06:27:00,53.3,46.3,30.24,SSE,161,0.0,0.0,77,0.00,,---,0.00,VWS V14.01,2013-05-18 10:27:00,
2013-05-18 06:32:00,53.3,46.3,30.24,SSE,160,0.0,0.0,77,0.00,,---,0.00,VWS V14.01,2013-05-18 10:32:00,
2013-05-18 06:37:00,53.3,46.3,30.24,SSE,159,0.0,0.0,77,0.00,,---,0.00,VWS V14.01,2013-05-18 10:37:00,
2013-05-18 06:42:00,53.4,46.4,30.25,SSE,150,0.0,0.0,77,0.00,,---,0.00,VWS V14.01,2013-05-18 10:42:00,
2013-05-18 06:47:00,53.4,46.7,30.25,SSE,150,0.0,0.0,78,0.00,,---,0.00,VWS V14.01,2013-05-18 10:47:00,
2013-05-18 06:52:00,53.6,46.9,30.25,SSE,151,0.0,0.0,78,0.00,,---,0.00,VWS V14.01,2013-05-18 10:52:00,
2013-05-18 06:57:00,53.7,47.0,30.25,SSE,150,0.0,0.0,78,0.00,,---,0.00,VWS V14.01,2013-05-18 10:57:00,
2013-05-18 07:02:00,53.8,46.8,30.25,ESE,112,0.0,0.0,77,0.00,,---,0.00,VWS V14.01,2013-05-18 11:02:00,
2013-05-18 07:07:00,53.9,46.9,30.25,SE,128,0.0,0.0,77,0.00,,---,0.00,VWS V14.01,2013-05-18 11:07:00,
2013-05-18 07:12:00,54.0,47.0,30.25,SE,142,0.0,1.0,77,0.00,,---,0.00,VWS V14.01,2013-05-18 11:12:00,
2013-05-18 07:17:00,54.2,47.2,30.25,SE,142,0.0,1.0,77,0.00,,---,0.00,VWS V14.01,2013-05-18 11:17:00,
2013-05-18 07:22:00,54.3,46.9,30.25,SE,142,0.0,1.0,76,0.00,,---,0.00,VWS V14.01,2013-05-18 11:22:00,
2013-05-18 07:27:00,54.4,47.0,30.25,SE,141,0.0,1.0,76,0.00,,---,0.00,VWS V14.01,2013-05-18 11:27:00,
2013-05-18 07:32:00,54.6,47.5,30.25,SE,141,0.0,1.0,77,0.00,,---,0.00,VWS V14.01,2013-05-18 11:32:00,
2013-05-18 07:37:00,54.7,47.3,30.26,SE,143,0.0,0.0,76,0.00,,---,0.00,VWS V14.01,2013-05-18 11:37:00,
2013-05-18 07:42:00,54.8,46.7,30.26,ESE,121,1.0,1.0,74,0.00,,---,0.00,VWS V14.01,2013-05-18 11:42:00,
2013-05-18 07:47:00,55.0,46.5,30.26,East,94,0.0,1.0,73,0.00,,---,0.00,VWS V14.01,2013-05-18 11:47:00,
2013-05-18 07:52:00,55.2,47.1,30.26,East,94,0.0,1.0,74,0.00,,---,0.00,VWS V14.01,2013-05-18 11:52:00,
2013-05-18 07:57:00,55.4,47.3,30.26,SE,124,0.0,1.0,74,0.00,,---,0.00,VWS V14.01,2013-05-18 11:57:00,
2013-05-18 08:02:00,55.6,47.5,30.26,ESE,117,0.0,1.0,74,0.00,,---,0.00,VWS V14.01,2013-05-18 12:02:00,
2013-05-18 08:07:00,55.7,47.5,30.26,SSE,148,0.0,2.0,74,0.00,,---,0.00,VWS V14.01,2013-05-18 12:07:00,
2013-05-18 08:12:00,55.9,48.1,30.26,ESE,103,2.0,3.0,75,0.00,,---,0.00,VWS V14.01,2013-05-18 12:12:00,
2013-05-18 08:17:00,56.1,47.2,30.26,East,101,3.0,4.0,72,0.00,,---,0.00,VWS V14.01,2013-05-18 12:17:00,
2013-05-18 08:22:00,56.3,47.0,30.26,ENE,74,2.0,4.0,71,0.00,,---,0.00,VWS V14.01,2013-05-18 12:22:00,
2013-05-18 08:27:00,56.6,47.7,30.26,ENE,70,3.0,4.0,72,0.00,,---,0.00,VWS V14.01,2013-05-18 12:27:00,
2013-05-18 08:32:00,56.8,47.5,30.26,East,79,3.0,4.0,71,0.00,,---,0.00,VWS V14.01,2013-05-18 12:32:00,
2013-05-18 08:37:00,57.0,47.7,30.26,ESE,110,3.0,5.0,71,0.00,,---,0.00,VWS V14.01,2013-05-18 12:37:00,
2013-05-18 08:42:00,57.2,47.9,30.27,East,96,3.0,5.0,71,0.00,,---,0.00,VWS V14.01,2013-05-18 12:42:00,
2013-05-18 08:47:00,57.4,47.3,30.27,ESE,108,1.0,5.0,69,0.00,,---,0.00,VWS V14.01,2013-05-18 12:47:00,
2013-05-18 08:52:00,57.6,47.9,30.27,East,79,1.0,5.0,70,0.00,,---,0.00,VWS V14.01,2013-05-18 12:52:00,
2013-05-18 08:57:00,57.8,47.7,30.27,East,95,2.0,5.0,69,0.00,,---,0.00,VWS V14.01,2013-05-18 12:57:00,
2013-05-18 09:03:00,57.9,48.2,30.27,SE,129,2.0,6.0,70,0.00,,---,0.00,VWS V14.01,2013-05-18 13:03:00,
2013-05-18 09:08:00,57.9,47.8,30.27,East,87,4.0,5.0,69,0.00,,---,0.00,VWS V14.01,2013-05-18 13:08:00,
2013-05-18 09:13:00,58.0,48.3,30.27,East,82,0.0,5.0,70,0.00,,---,0.00,VWS V14.01,2013-05-18 13:13:00,
2013-05-18 09:18:00,58.0,48.3,30.27,East,82,2.0,5.0,70,0.00,,---,0.00,VWS V14.01,2013-05-18 13:18:00,
2013-05-18 09:23:00,58.0,47.9,30.27,East,84,2.0,5.0,69,0.00,,---,0.00,VWS V14.01,2013-05-18 13:23:00,
2013-05-18 09:28:00,58.1,48.0,30.27,East,82,4.0,5.0,69,0.00,,---,0.00,VWS V14.01,2013-05-18 13:28:00,
2013-05-18 09:33:00,58.1,48.4,30.27,ENE,62,1.0,5.0,70,0.00,,---,0.00,VWS V14.01,2013-05-18 13:33:00,
2013-05-18 09:38:00,58.3,48.6,30.27,East,101,1.0,4.0,70,0.00,,---,0.00,VWS V14.01,2013-05-18 13:38:00,
2013-05-18 09:43:00,58.5,48.8,30.27,East,91,2.0,5.0,70,0.00,,---,0.00,VWS V14.01,2013-05-18 13:43:00,
2013-05-18 09:48:00,58.7,48.6,30.27,ENE,60,1.0,5.0,69,0.00,,---,0.00,VWS V14.01,2013-05-18 13:48:00,
2013-05-18 09:53:00,58.8,48.3,30.27,ENE,73,4.0,6.0,68,0.00,,---,0.00,VWS V14.01,2013-05-18 13:53:00,
2013-05-18 09:58:00,58.9,48.8,30.27,East,83,1.0,6.0,69,0.00,,---,0.00,VWS V14.01,2013-05-18 13:58:00,
2013-05-18 10:03:00,59.0,48.5,30.27,East,92,2.0,6.0,68,0.00,,---,0.00,VWS V14.01,2013-05-18 14:03:00,
2013-05-18 10:08:00,59.0,48.1,30.27,East,98,2.0,5.0,67,0.00,,---,0.00,VWS V14.01,2013-05-18 14:08:00,
2013-05-18 10:13:00,59.1,48.6,30.28,East,79,2.0,5.0,68,0.00,,---,0.00,VWS V14.01,2013-05-18 14:13:00,
2013-05-18 10:18:00,59.1,48.2,30.27,ENE,72,1.0,5.0,67,0.00,,---,0.00,VWS V14.01,2013-05-18 14:18:00,
2013-05-18 10:23:00,59.1,48.2,30.27,East,79,2.0,5.0,67,0.00,,---,0.00,VWS V14.01,2013-05-18 14:23:00,
2013-05-18 10:28:00,59.1,48.2,30.27,ESE,114,2.0,6.0,67,0.00,,---,0.00,VWS V14.01,2013-05-18 14:28:00,
2013-05-18 10:33:00,59.1,48.2,30.27,SE,128,3.0,6.0,67,0.00,,---,0.00,VWS V14.01,2013-05-18 14:33:00,
2013-05-18 10:38:00,59.2,48.3,30.27,ENE,75,1.0,4.0,67,0.00,,---,0.00,VWS V14.01,2013-05-18 14:38:00,
2013-05-18 10:43:00,59.4,48.5,30.27,East,85,0.0,4.0,67,0.00,,---,0.00,VWS V14.01,2013-05-18 14:43:00,
2013-05-18 10:48:00,59.6,48.6,30.27,ENE,75,0.0,4.0,67,0.00,,---,0.00,VWS V14.01,2013-05-18 14:48:00,
2013-05-18 10:53:00,59.9,48.9,30.27,ESE,110,1.0,4.0,67,0.00,,---,0.00,VWS V14.01,2013-05-18 14:53:00,
2013-05-18 10:58:00,59.8,48.4,30.28,ESE,114,2.0,4.0,66,0.00,,---,0.00,VWS V14.01,2013-05-18 14:58:00,
2013-05-18 11:03:00,59.8,48.8,30.28,ENE,61,1.0,4.0,67,0.00,,---,0.00,VWS V14.01,2013-05-18 15:03:00,
2013-05-18 11:08:00,59.8,49.2,30.28,East,79,0.0,4.0,68,0.00,,---,0.00,VWS V14.01,2013-05-18 15:08:00,
2013-05-18 11:13:00,59.8,48.4,30.28,SE,128,0.0,4.0,66,0.00,,---,0.00,VWS V14.01,2013-05-18 15:13:00,
2013-05-18 11:18:00,59.6,48.6,30.28,ESE,104,1.0,4.0,67,0.00,,---,0.00,VWS V14.01,2013-05-18 15:18:00,
2013-05-18 11:23:00,59.6,48.6,30.27,East,97,2.0,4.0,67,0.00,,---,0.00,VWS V14.01,2013-05-18 15:23:00,
2013-05-18 11:28:00,59.7,48.7,30.27,ESE,122,0.0,4.0,67,0.00,,---,0.00,VWS V14.01,2013-05-18 15:28:00,
2013-05-18 11:33:00,60.0,49.4,30.27,East,85,0.0,4.0,68,0.00,,---,0.00,VWS V14.01,2013-05-18 15:33:00,
2013-05-18 11:38:00,60.3,49.3,30.26,ESE,112,2.0,3.0,67,0.00,,---,0.00,VWS V14.01,2013-05-18 15:38:00,
2013-05-18 11:43:00,60.7,50.1,30.26,ESE,117,2.0,3.0,68,0.00,,---,0.00,VWS V14.01,2013-05-18 15:43:00,
2013-05-18 11:48:00,61.0,50.0,30.26,ESE,108,1.0,5.0,67,0.00,,---,0.00,VWS V14.01,2013-05-18 15:48:00,
2013-05-18 11:53:00,61.8,49.1,30.27,SE,135,2.0,8.0,63,0.00,,---,0.00,VWS V14.01,2013-05-18 15:53:00,
2013-05-18 11:58:00,62.4,48.8,30.27,SSE,159,2.0,8.0,61,0.00,,---,0.00,VWS V14.01,2013-05-18 15:58:00,
2013-05-18 12:03:00,63.1,49.5,30.26,ESE,104,3.0,8.0,61,0.00,,---,0.00,VWS V14.01,2013-05-18 16:03:00,
2013-05-18 12:08:00,63.8,49.7,30.26,SSW,205,0.0,4.0,60,0.00,,---,0.00,VWS V14.01,2013-05-18 16:08:00,
2013-05-18 12:13:00,63.9,48.8,30.26,SSE,162,0.0,6.0,58,0.00,,---,0.00,VWS V14.01,2013-05-18 16:13:00,
2013-05-18 12:18:00,64.1,49.5,30.26,ESE,114,2.0,6.0,59,0.00,,---,0.00,VWS V14.01,2013-05-18 16:18:00,
2013-05-18 12:23:00,64.5,50.8,30.26,SW,224,0.0,6.0,61,0.00,,---,0.00,VWS V14.01,2013-05-18 16:23:00,
2013-05-18 12:28:00,65.0,50.3,30.26,SSE,156,1.0,6.0,59,0.00,,---,0.00,VWS V14.01,2013-05-18 16:28:00,
2013-05-18 12:33:00,65.3,49.2,30.26,South,177,7.0,9.0,56,0.00,,---,0.00,VWS V14.01,2013-05-18 16:33:00,
2013-05-18 12:38:00,65.4,50.7,30.26,SE,146,3.0,9.0,59,0.00,,---,0.00,VWS V14.01,2013-05-18 16:38:00,
2013-05-18 12:43:00,65.6,50.0,30.26,East,85,0.0,9.0,57,0.00,,---,0.00,VWS V14.01,2013-05-18 16:43:00,
2013-05-18 12:48:00,65.3,49.2,30.25,SSE,156,2.0,9.0,56,0.00,,---,0.00,VWS V14.01,2013-05-18 16:48:00,
2013-05-18 12:53:00,65.3,48.2,30.25,SW,219,11.0,11.0,54,0.00,,---,0.00,VWS V14.01,2013-05-18 16:53:00,
2013-05-18 12:58:00,65.0,48.9,30.25,South,179,4.0,11.0,56,0.00,,---,0.00,VWS V14.01,2013-05-18 16:58:00,
2013-05-18 13:03:00,64.7,48.7,30.25,South,183,7.0,11.0,56,0.00,,---,0.00,VWS V14.01,2013-05-18 17:03:00,
2013-05-18 13:08:00,64.6,49.5,30.25,SW,216,4.0,8.0,58,0.00,,---,0.00,VWS V14.01,2013-05-18 17:08:00,
2013-05-18 13:13:00,65.0,50.3,30.25,South,169,3.0,8.0,59,0.00,,---,0.00,VWS V14.01,2013-05-18 17:13:00,
2013-05-18 13:18:00,65.0,49.9,30.25,SE,131,5.0,10.0,58,0.00,,---,0.00,VWS V14.01,2013-05-18 17:18:00,
2013-05-18 13:23:00,64.8,49.2,30.25,SSE,164,5.0,11.0,57,0.00,,---,0.00,VWS V14.01,2013-05-18 17:23:00,
2013-05-18 13:28:00,65.0,49.9,30.25,SE,138,2.0,11.0,58,0.00,,---,0.00,VWS V14.01,2013-05-18 17:28:00,
2013-05-18 13:33:00,65.1,50.0,30.25,South,169,1.0,2.0,58,0.00,,---,0.00,VWS V14.01,2013-05-18 17:33:00,
2013-05-18 13:38:00,65.1,49.5,30.25,South,174,5.0,9.0,57,0.00,,---,0.00,VWS V14.01,2013-05-18 17:38:00,
2013-05-18 13:43:00,65.1,49.5,30.25,SE,124,2.0,9.0,57,0.00,,---,0.00,VWS V14.01,2013-05-18 17:43:00,
2013-05-18 13:48:00,65.1,50.9,30.25,South,190,2.0,9.0,60,0.00,,---,0.00,VWS V14.01,2013-05-18 17:48:00,
2013-05-18 13:53:00,65.0,50.3,30.25,SW,229,1.0,9.0,59,0.00,,---,0.00,VWS V14.01,2013-05-18 17:53:00,
2013-05-18 13:58:00,64.9,49.8,30.25,South,172,5.0,9.0,58,0.00,,---,0.00,VWS V14.01,2013-05-18 17:58:00,
2013-05-18 14:03:00,64.9,50.2,30.25,East,90,2.0,3.0,59,0.00,,---,0.00,VWS V14.01,2013-05-18 18:03:00,
2013-05-18 14:08:00,64.8,50.2,30.25,SW,214,1.0,8.0,59,0.00,,---,0.00,VWS V14.01,2013-05-18 18:08:00,
2013-05-18 14:13:00,64.7,49.6,30.25,South,169,7.0,11.0,58,0.00,,---,0.00,VWS V14.01,2013-05-18 18:13:00,
2013-05-18 14:18:00,64.4,49.3,30.25,SSW,204,7.0,11.0,58,0.00,,---,0.00,VWS V14.01,2013-05-18 18:18:00,
2013-05-18 14:23:00,64.1,50.0,30.25,ESE,112,2.0,11.0,60,0.00,,---,0.00,VWS V14.01,2013-05-18 18:23:00,
2013-05-18 14:28:00,63.9,49.8,30.25,SE,129,5.0,11.0,60,0.00,,---,0.00,VWS V14.01,2013-05-18 18:28:00,
2013-05-18 14:33:00,63.8,50.1,30.25,East,98,2.0,3.0,61,0.00,,---,0.00,VWS V14.01,2013-05-18 18:33:00,
2013-05-18 14:38:00,63.6,49.9,30.26,SSW,207,3.0,9.0,61,0.00,,---,0.00,VWS V14.01,2013-05-18 18:38:00,
2013-05-18 14:43:00,63.3,51.3,30.25,South,191,3.0,9.0,65,0.00,,---,0.00,VWS V14.01,2013-05-18 18:43:00,
2013-05-18 14:48:00,62.6,51.5,30.26,SSE,153,2.0,9.0,67,0.01,,---,0.01,VWS V14.01,2013-05-18 18:48:00,
2013-05-18 14:53:00,62.0,51.7,30.26,SE,134,0.0,9.0,69,0.01,,---,0.01,VWS V14.01,2013-05-18 18:53:00,
2013-05-18 14:58:00,61.7,52.6,30.26,SSE,154,0.0,9.0,72,0.01,,---,0.01,VWS V14.01,2013-05-18 18:58:00,
2013-05-18 15:03:00,61.3,52.6,30.26,SSE,150,0.0,1.0,73,0.01,,---,0.01,VWS V14.01,2013-05-18 19:03:00,
2013-05-18 15:08:00,61.1,53.1,30.26,East,96,0.0,3.0,75,0.01,,---,0.01,VWS V14.01,2013-05-18 19:08:00,
2013-05-18 15:13:00,60.9,52.9,30.26,East,96,0.0,3.0,75,0.01,,---,0.01,VWS V14.01,2013-05-18 19:13:00,
2013-05-18 15:19:00,60.8,53.2,30.26,ENE,77,2.0,3.0,76,0.01,,---,0.01,VWS V14.01,2013-05-18 19:19:00,
2013-05-18 15:24:00,60.7,53.5,30.26,East,85,4.0,4.0,77,0.01,,---,0.01,VWS V14.01,2013-05-18 19:24:00,
2013-05-18 15:29:00,60.7,53.8,30.26,ESE,104,2.0,4.0,78,0.01,,---,0.01,VWS V14.01,2013-05-18 19:29:00,
2013-05-18 15:34:00,60.7,54.2,30.26,East,95,2.0,2.0,79,0.01,,---,0.01,VWS V14.01,2013-05-18 19:34:00,
2013-05-18 15:39:00,60.7,54.5,30.25,ENE,72,1.0,3.0,80,0.01,,---,0.01,VWS V14.01,2013-05-18 19:39:00,
2013-05-18 15:44:00,60.9,55.0,30.25,SE,129,1.0,3.0,81,0.01,,---,0.01,VWS V14.01,2013-05-18 19:44:00,
2013-05-18 15:49:00,61.1,55.6,30.25,East,85,2.0,4.0,82,0.01,,---,0.01,VWS V14.01,2013-05-18 19:49:00,
2013-05-18 15:54:00,61.1,55.2,30.25,ENE,77,1.0,5.0,81,0.01,,---,0.01,VWS V14.01,2013-05-18 19:54:00,
2013-05-18 15:59:00,61.0,54.8,30.25,SE,124,0.0,5.0,80,0.01,,---,0.01,VWS V14.01,2013-05-18 19:59:00,
2013-05-18 16:04:00,61.1,55.2,30.25,East,81,0.0,3.0,81,0.00,,---,0.01,VWS V14.01,2013-05-18 20:04:00,
2013-05-18 16:09:00,61.0,54.8,30.25,ENE,64,1.0,5.0,80,0.00,,---,0.01,VWS V14.01,2013-05-18 20:09:00,
2013-05-18 16:14:00,60.9,54.7,30.25,ESE,113,2.0,5.0,80,0.00,,---,0.01,VWS V14.01,2013-05-18 20:14:00,
2013-05-18 16:19:00,60.8,54.6,30.25,ESE,104,5.0,6.0,80,0.00,,---,0.01,VWS V14.01,2013-05-18 20:19:00,
2013-05-18 16:24:00,60.6,54.4,30.25,East,82,1.0,7.0,80,0.00,,---,0.01,VWS V14.01,2013-05-18 20:24:00,
2013-05-18 16:29:00,60.5,54.7,30.25,ESE,102,2.0,7.0,81,0.00,,---,0.01,VWS V14.01,2013-05-18 20:29:00,
2013-05-18 16:34:00,60.4,54.9,30.25,East,86,2.0,5.0,82,0.00,,---,0.01,VWS V14.01,2013-05-18 20:34:00,
2013-05-18 16:39:00,60.2,54.7,30.25,East,94,3.0,6.0,82,0.00,,---,0.01,VWS V14.01,2013-05-18 20:39:00,
2013-05-18 16:44:00,60.2,55.0,30.25,East,89,2.0,7.0,83,0.00,,---,0.01,VWS V14.01,2013-05-18 20:44:00,
2013-05-18 16:49:00,60.1,54.9,30.25,ESE,102,1.0,7.0,83,0.00,,---,0.01,VWS V14.01,2013-05-18 20:49:00,
2013-05-18 16:54:00,59.9,55.1,30.25,East,88,4.0,7.0,84,0.00,,---,0.01,VWS V14.01,2013-05-18 20:54:00,
2013-05-18 16:59:00,59.9,54.7,30.25,SSE,150,0.0,7.0,83,0.00,,---,0.01,VWS V14.01,2013-05-18 20:59:00,
2013-05-18 17:04:00,60.1,54.9,30.25,East,101,8.0,8.0,83,0.00,,---,0.01,VWS V14.01,2013-05-18 21:04:00,
2013-05-18 17:09:00,60.1,54.9,30.25,SSE,163,6.0,8.0,83,0.00,,---,0.01,VWS V14.01,2013-05-18 21:09:00,
2013-05-18 17:14:00,60.2,54.7,30.25,SE,129,2.0,8.0,82,0.00,,---,0.01,VWS V14.01,2013-05-18 21:14:00,
2013-05-18 17:19:00,60.4,55.2,30.25,East,96,2.0,8.0,83,0.00,,---,0.01,VWS V14.01,2013-05-18 21:19:00,
2013-05-18 17:24:00,60.5,55.3,30.25,SSE,160,5.0,8.0,83,0.00,,---,0.01,VWS V14.01,2013-05-18 21:24:00,
2013-05-18 17:29:00,60.6,55.1,30.25,East,91,3.0,8.0,82,0.00,,---,0.01,VWS V14.01,2013-05-18 21:29:00,
2013-05-18 17:34:00,60.6,54.8,30.25,SE,141,3.0,6.0,81,0.00,,---,0.01,VWS V14.01,2013-05-18 21:34:00,
2013-05-18 17:39:00,60.7,54.8,30.25,East,82,3.0,6.0,81,0.00,,---,0.01,VWS V14.01,2013-05-18 21:39:00,
2013-05-18 17:44:00,60.7,54.5,30.25,ENE,67,2.0,7.0,80,0.00,,---,0.01,VWS V14.01,2013-05-18 21:44:00,
2013-05-18 17:49:00,60.7,54.2,30.25,East,82,2.0,10.0,79,0.00,,---,0.01,VWS V14.01,2013-05-18 21:49:00,
2013-05-18 17:54:00,60.8,54.3,30.25,SE,132,0.0,10.0,79,0.00,,---,0.01,VWS V14.01,2013-05-18 21:54:00,
2013-05-18 17:59:00,60.9,54.0,30.25,SSE,154,8.0,10.0,78,0.00,,---,0.01,VWS V14.01,2013-05-18 21:59:00,
2013-05-18 18:04:00,61.0,53.8,30.25,ESE,114,6.0,6.0,77,0.00,,---,0.01,VWS V14.01,2013-05-18 22:04:00,
2013-05-18 18:09:00,61.1,53.8,30.25,ENE,77,1.0,6.0,77,0.00,,---,0.01,VWS V14.01,2013-05-18 22:09:00,
2013-05-18 18:14:00,61.1,53.1,30.25,SSE,148,4.0,9.0,75,0.00,,---,0.01,VWS V14.01,2013-05-18 22:14:00,
2013-05-18 18:19:00,61.1,53.1,30.25,SSE,167,3.0,9.0,75,0.00,,---,0.01,VWS V14.01,2013-05-18 22:19:00,
2013-05-18 18:24:00,61.1,53.1,30.25,South,179,4.0,9.0,75,0.00,,---,0.01,VWS V14.01,2013-05-18 22:24:00,
2013-05-18 18:29:00,61.0,52.7,30.25,SSE,166,6.0,10.0,74,0.00,,---,0.01,VWS V14.01,2013-05-18 22:29:00,
2013-05-18 18:34:00,60.9,52.6,30.25,SSE,167,3.0,4.0,74,0.00,,---,0.01,VWS V14.01,2013-05-18 22:34:00,
2013-05-18 18:39:00,60.9,52.6,30.25,South,174,6.0,11.0,74,0.00,,---,0.01,VWS V14.01,2013-05-18 22:39:00,
2013-05-18 18:44:00,60.8,52.5,30.25,SE,143,2.0,11.0,74,0.00,,---,0.01,VWS V14.01,2013-05-18 22:44:00,
2013-05-18 18:49:00,60.7,52.0,30.25,South,180,7.0,13.0,73,0.00,,---,0.01,VWS V14.01,2013-05-18 22:49:00,
2013-05-18 18:54:00,60.6,52.3,30.25,SSE,150,3.0,13.0,74,0.00,,---,0.01,VWS V14.01,2013-05-18 22:54:00,
2013-05-18 18:59:00,60.5,52.2,30.26,ESE,111,7.0,13.0,74,0.00,,---,0.01,VWS V14.01,2013-05-18 22:59:00,
2013-05-18 19:04:00,60.5,52.2,30.26,SE,141,2.0,7.0,74,0.00,,---,0.01,VWS V14.01,2013-05-18 23:04:00,
2013-05-18 19:09:00,60.4,52.1,30.26,SSE,150,2.0,7.0,74,0.00,,---,0.01,VWS V14.01,2013-05-18 23:09:00,
2013-05-18 19:14:00,60.3,52.3,30.26,SSE,153,7.0,7.0,75,0.00,,---,0.01,VWS V14.01,2013-05-18 23:14:00,
2013-05-18 19:19:00,60.3,52.0,30.26,East,99,2.0,10.0,74,0.00,,---,0.01,VWS V14.01,2013-05-18 23:19:00,
2013-05-18 19:24:00,60.2,52.3,30.25,ENE,67,1.0,10.0,75,0.00,,---,0.01,VWS V14.01,2013-05-18 23:24:00,
2013-05-18 19:29:00,60.1,52.5,30.26,SW,219,3.0,10.0,76,0.00,,---,0.01,VWS V14.01,2013-05-18 23:29:00,
2013-05-18 19:34:00,60.0,52.4,30.26,SSE,166,2.0,3.0,76,0.00,,---,0.01,VWS V14.01,2013-05-18 23:34:00,
2013-05-18 19:39:00,60.0,52.4,30.26,South,169,4.0,11.0,76,0.00,,---,0.01,VWS V14.01,2013-05-18 23:39:00,
2013-05-18 19:44:00,59.9,52.7,30.26,SSE,167,7.0,11.0,77,0.00,,---,0.01,VWS V14.01,2013-05-18 23:44:00,
2013-05-18 19:49:00,59.8,52.6,30.26,SSE,154,4.0,11.0,77,0.00,,---,0.01,VWS V14.01,2013-05-18 23:49:00,
2013-05-18 19:54:00,59.8,52.9,30.27,SSE,150,5.0,11.0,78,0.00,,---,0.01,VWS V14.01,2013-05-18 23:54:00,
2013-05-18 19:59:00,59.7,52.8,30.26,SSW,202,6.0,11.0,78,0.00,,---,0.01,VWS V14.01,2013-05-18 23:59:00,
2013-05-18 20:04:00,59.6,53.1,30.26,SSE,160,6.0,7.0,79,0.00,,---,0.01,VWS V14.01,2013-05-19 00:04:00,
2013-05-18 20:09:00,59.6,52.7,30.26,SSW,200,1.0,9.0,78,0.00,,---,0.01,VWS V14.01,2013-05-19 00:09:00,
2013-05-18 20:14:00,59.5,52.6,30.27,SSW,193,2.0,10.0,78,0.00,,---,0.01,VWS V14.01,2013-05-19 00:14:00,
2013-05-18 20:19:00,59.5,53.0,30.27,South,176,2.0,10.0,79,0.00,,---,0.01,VWS V14.01,2013-05-19 00:19:00,
2013-05-18 20:24:00,59.5,53.0,30.27,SE,129,8.0,10.0,79,0.00,,---,0.01,VWS V14.01,2013-05-19 00:24:00,
2013-05-18 20:29:00,59.4,52.5,30.27,SSW,193,3.0,10.0,78,0.00,,---,0.01,VWS V14.01,2013-05-19 00:29:00,
2013-05-18 20:34:00,59.3,52.8,30.27,SE,142,2.0,3.0,79,0.00,,---,0.01,VWS V14.01,2013-05-19 00:34:00,
2013-05-18 20:39:00,59.3,52.5,30.27,South,174,3.0,6.0,78,0.00,,---,0.01,VWS V14.01,2013-05-19 00:39:00,
2013-05-18 20:44:00,59.3,52.5,30.27,SW,233,4.0,9.0,78,0.00,,---,0.01,VWS V14.01,2013-05-19 00:44:00,
2013-05-18 20:49:00,59.2,52.3,30.26,South,173,4.0,9.0,78,0.00,,---,0.01,VWS V14.01,2013-05-19 00:49:00,
2013-05-18 20:54:00,59.2,52.3,30.26,WSW,240,1.0,9.0,78,0.00,,---,0.01,VWS V14.01,2013-05-19 00:54:00,
2013-05-18 20:59:00,59.1,52.3,30.26,South,184,3.0,9.0,78,0.00,,---,0.01,VWS V14.01,2013-05-19 00:59:00,
2013-05-18 21:04:00,59.1,52.3,30.26,SSW,194,4.0,8.0,78,0.00,,---,0.01,VWS V14.01,2013-05-19 01:04:00,
2013-05-18 21:09:00,59.0,52.2,30.26,SE,124,3.0,8.0,78,0.00,,---,0.01,VWS V14.01,2013-05-19 01:09:00,
2013-05-18 21:14:00,59.1,52.3,30.26,West,276,2.0,8.0,78,0.00,,---,0.01,VWS V14.01,2013-05-19 01:14:00,
2013-05-18 21:19:00,59.0,52.2,30.26,South,170,4.0,8.0,78,0.00,,---,0.01,VWS V14.01,2013-05-19 01:19:00,
2013-05-18 21:24:00,59.0,52.2,30.27,SSE,166,2.0,8.0,78,0.00,,---,0.01,VWS V14.01,2013-05-19 01:24:00,
2013-05-18 21:29:00,58.9,52.1,30.27,SW,218,1.0,8.0,78,0.00,,---,0.01,VWS V14.01,2013-05-19 01:29:00,
2013-05-18 21:34:00,58.9,52.1,30.26,SE,142,5.0,5.0,78,0.00,,---,0.01,VWS V14.01,2013-05-19 01:34:00,
2013-05-18 21:39:00,58.9,52.1,30.27,SE,138,5.0,10.0,78,0.00,,---,0.01,VWS V14.01,2013-05-19 01:39:00,
2013-05-18 21:44:00,58.8,52.3,30.27,East,85,2.0,10.0,79,0.00,,---,0.01,VWS V14.01,2013-05-19 01:44:00,
2013-05-18 21:49:00,58.8,52.3,30.27,East,90,1.0,10.0,79,0.00,,---,0.01,VWS V14.01,2013-05-19 01:49:00,
2013-05-18 21:54:00,58.7,52.2,30.27,South,178,2.0,10.0,79,0.00,,---,0.01,VWS V14.01,2013-05-19 01:54:00,
2013-05-18 21:59:00,58.8,52.3,30.27,SE,131,1.0,10.0,79,0.00,,---,0.01,VWS V14.01,2013-05-19 01:59:00,
2013-05-18 22:04:00,58.7,52.2,30.27,SSE,166,3.0,6.0,79,0.00,,---,0.01,VWS V14.01,2013-05-19 02:04:00,
2013-05-18 22:09:00,58.7,51.9,30.28,ESE,105,3.0,8.0,78,0.00,,---,0.01,VWS V14.01,2013-05-19 02:09:00,
2013-05-18 22:14:00,58.8,52.0,30.28,SSE,150,1.0,8.0,78,0.00,,---,0.01,VWS V14.01,2013-05-19 02:14:00,
2013-05-18 22:19:00,58.7,51.9,30.28,South,174,3.0,8.0,78,0.00,,---,0.01,VWS V14.01,2013-05-19 02:19:00,
2013-05-18 22:24:00,58.6,51.8,30.28,SSW,198,5.0,10.0,78,0.00,,---,0.01,VWS V14.01,2013-05-19 02:24:00,
2013-05-18 22:29:00,58.6,51.8,30.27,SW,229,3.0,10.0,78,0.00,,---,0.01,VWS V14.01,2013-05-19 02:29:00,
2013-05-18 22:34:00,58.5,51.7,30.27,SSW,200,5.0,8.0,78,0.00,,---,0.01,VWS V14.01,2013-05-19 02:34:00,
2013-05-18 22:39:00,58.4,51.6,30.27,ESE,104,1.0,8.0,78,0.00,,---,0.01,VWS V14.01,2013-05-19 02:39:00,
2013-05-18 22:44:00,58.4,51.6,30.27,SW,217,1.0,8.0,78,0.00,,---,0.01,VWS V14.01,2013-05-19 02:44:00,
2013-05-18 22:50:00,58.3,51.8,30.27,SE,143,3.0,8.0,79,0.00,,---,0.01,VWS V14.01,2013-05-19 02:50:00,
2013-05-18 22:55:00,58.3,51.8,30.27,SSE,158,4.0,8.0,79,0.00,,---,0.01,VWS V14.01,2013-05-19 02:55:00,
2013-05-18 23:00:00,58.2,51.7,30.27,SE,136,2.0,8.0,79,0.00,,---,0.01,VWS V14.01,2013-05-19 03:00:00,
2013-05-18 23:05:00,58.2,51.7,30.27,East,87,2.0,5.0,79,0.00,,---,0.01,VWS V14.01,2013-05-19 03:05:00,
2013-05-18 23:10:00,58.1,51.6,30.27,WSW,243,6.0,10.0,79,0.00,,---,0.01,VWS V14.01,2013-05-19 03:10:00,
2013-05-18 23:15:00,58.0,51.5,30.26,SSW,198,4.0,10.0,79,0.00,,---,0.01,VWS V14.01,2013-05-19 03:15:00,
2013-05-18 23:20:00,58.0,51.9,30.26,SSW,201,3.0,11.0,80,0.00,,---,0.01,VWS V14.01,2013-05-19 03:20:00,
2013-05-18 23:25:00,57.9,51.8,30.27,SW,228,0.0,11.0,80,0.00,,---,0.01,VWS V14.01,2013-05-19 03:25:00,
2013-05-18 23:30:00,57.7,51.9,30.27,SW,214,3.0,11.0,81,0.00,,---,0.01,VWS V14.01,2013-05-19 03:30:00,
2013-05-18 23:35:00,57.4,52.0,30.27,SSW,194,3.0,6.0,82,0.00,,---,0.01,VWS V14.01,2013-05-19 03:35:00,
2013-05-18 23:40:00,57.1,52.0,30.27,East,90,0.0,6.0,83,0.00,,---,0.01,VWS V14.01,2013-05-19 03:40:00,
2013-05-18 23:45:00,56.9,52.1,30.27,SE,139,1.0,6.0,84,0.00,,---,0.01,VWS V14.01,2013-05-19 03:45:00,
2013-05-18 23:50:00,56.7,52.2,30.27,SSE,165,0.0,6.0,85,0.00,,---,0.01,VWS V14.01,2013-05-19 03:50:00,
2013-05-18 23:55:00,56.6,52.2,30.27,SSE,155,1.0,6.0,85,0.00,,---,0.01,VWS V14.01,2013-05-19 03:55:00,